This is the latest recevied weather packets stored in our database for station/object OE-11373. If no packets are shown the sender has not sent any weather packets the latest 10 day(s).
| Time | Temp. | Humidity | Pressure | Rain* | Wind** | Luminosity | Snow |
|---|---|---|---|---|---|---|---|
| 1787973913 | 13.89° C | 64% | 852.4 hPa | - | - | - | - |
| 1787973085 | 13.33° C | 65% | 852.6 hPa | - | - | - | - |
| 1787972713 | 13.33° C | 66% | 852.6 hPa | - | - | - | - |
| 1787972113 | 13.33° C | 67% | 852.4 hPa | - | - | - | - |
| 1787971286 | 13.33° C | 67% | 852.3 hPa | - | - | - | - |
| 1787970913 | 12.78° C | 68% | 852.4 hPa | - | - | - | - |
| 1787970313 | 12.78° C | 68% | 852.5 hPa | - | - | - | - |
| 1787969485 | 12.78° C | 72% | 852.4 hPa | - | - | - | - |
| 1787969112 | 12.22° C | 72% | 852.3 hPa | - | - | - | - |
| 1787968513 | 12.22° C | 74% | 852.3 hPa | - | - | - | - |
| 1787967685 | 11.67° C | 77% | 852.2 hPa | - | - | - | - |
| 1787967313 | 11.67° C | 81% | 852.1 hPa | - | - | - | - |
| 1787966713 | 11.67° C | 79% | 852 hPa | - | - | - | - |
| 1787965886 | 11.11° C | 84% | 851.7 hPa | - | - | - | - |
| 1787964913 | 10.56° C | 88% | 852 hPa | - | - | - | - |
| 1787964086 | 10.56° C | 89% | 852 hPa | - | - | - | - |
| 1787963713 | 10.56° C | 91% | 852.1 hPa | - | - | - | - |
| 1787963112 | 10.56° C | 93% | 852.5 hPa | - | - | - | - |
| 1787962285 | 10.56° C | 95% | 852.9 hPa | - | - | - | - |
| 1787961912 | 10.56° C | 89% | 853.1 hPa | - | - | - | - |
| 1787961313 | 10.56° C | 96% | 853.1 hPa | - | - | - | - |
| 1787960486 | 10.56° C | 98% | 853 hPa | - | - | - | - |
| 1787960113 | 11.11° C | 100% | 853.3 hPa | - | - | - | - |
| 1787959512 | 11.67° C | 100% | 853.3 hPa | - | - | - | - |
| 1787958913 | 11.11° C | 100% | 852.7 hPa | - | - | - | - |
* Rain since midnight (hover to see other rain measurements)
** Current wind speed in m/s (hover to see current wind gust speed)